Погода в Ароне

Испания     28°06′00″N   16°40′57″W
В апреле 2022 года жителям России запретили посещать сайт meteo.paraplan.net по решению Генеральной прокуратуры. Аудитория сайта уменьшилась в 10 раз. Владельцы сайта не видят смысла в поддержке погодного сервера в таких условиях. Сайт будет закрыт в октябре.
темп.,
°C
ветер,
м/с
пор.,
м/с
влажн.,
%
обл.,
%
осадки,
мм/ч
давл.,
гПа
погр.,
м
30 сентября, пт
пт3001:00+23вюв547262 0.2 1018466
04:00+23вюв436763 0.1 1017593
07:00+22вюв336564 0.1 1016785
10:00+23юв226327 0.0 1018890
13:00+23юз326410 0.0 1019759
16:00+22ю347416 0.0 1017613
19:00+22ююв457717 0.1 1017487
22:00+23юз227694 0.1 1017311
1 октября, сб
сб101:00+23ююв337657 0.1 1017509
04:00+23вюв4472100 0.0 1016433
07:00+22ююв126996 0.1 1016573
10:00+22ююз236868 0.0 1017613
13:00+22юз226926 0.1 1018798
16:00+21юв116932 0.0 1016438
19:00+22ю22687 0.0 1016523
22:00+22ююз137219 0.0 1017494
2 октября, вс
вс201:00+22ю227111 0.0 1016552
04:00+21зюз03725 0.0 1015432
07:00+22ююв33710 0.0 1015477
10:00+22юз11680 0.0 1017572
13:00+22юз11680 0.0 1017471
16:00+22зюз21683 0.0 1016403
19:00+22зсз22724 0.0 1016354
22:00+22юв11740 0.0 1017272
3 октября, пн
пн301:00+22юв32780 0.0 1017351
04:00+22ююв11760 0.0 1016323
07:00+22юв11740 0.0 1017361
10:00+22ссз117324 0.0 1019285
13:00+23з227183 0.0 1019287
16:00+22зсз2274100 0.0 1017251
19:00+22юв337810 0.0 1018233
22:00+23вюв44752 0.0 1019290
4 октября, вт
вт401:00+22сз22785 0.0 1019259
04:00+23зсз12723 0.0 1017193
07:00+23ююв11730 0.0 1017173
10:00+23ююв22731 0.0 1018189
13:00+24ю11720 0.0 1019290
16:00+24юв21730 0.0 1017269
19:00+24вюв43765 0.0 1017259
22:00+24в23780 0.0 101872